Weather History for Grand Junction, CO

Change the Weather History Date:

Friday, February 8, 2013

  Actual Average Record
Temperature  
Mean Temperature 42 °F 32 °F  
Max Temperature 55 °F 43 °F 60 °F (1996)
Min Temperature 29 °F 22 °F -21 °F (1933)
Degree Days  
Heating Degree Days 23 33  
Month to date heating degree days 242 273  
Since 1 July heating degree days 4085 3799  
Cooling Degree Days 0 0  
Month to date cooling degree days 0 0  
Year to date cooling degree days 0 0  
Moisture  
Dew Point 25 °F    
Average Humidity 59    
Maximum Humidity 89    
Minimum Humidity 28    
Precipitation  
Precipitation 0.00 in 0.02 in 0.56 in (1913)
Month to date precipitation 0.00 0.14  
Year to date precipitation 0.61 0.72  
Snow  
Snow 0.00 in 0.10 in 4.70 in (1904)
Month to date snowfall 0.0 1.0  
Since 1 July snowfall 14.4 13.3  
Snow Depth 0.00 in    
Sea Level Pressure  
Sea Level Pressure 29.76 in    
Wind  
Wind Speed 14 mph (SE)    
Max Wind Speed 35 mph    
Max Gust Speed 54 mph    
Visibility 10 miles    
Events      
T = Trace of Precipitation, MM = Missing Value Source: NWS Daily Summary

Daily Weather History Graph

Daily Weather History Graph

Search for Another Location

Airport:

Trip Planner

Search our weather history database for the weather conditions in past years. The results will help you decide how hot, cold, wet, or windy it might be!

Date:

Astronomy

Feb. 08, 2013 Rise Set
Actual Time 7:13 AM MST 5:43 PM MST
Civil Twilight 6:45 AM MST 6:11 PM MST
Nautical Twilight 6:14 AM MST 6:43 PM MST
Astronomical Twilight 5:43 AM MST 7:14 PM MST
Moon 5:44 AM MST (2/8) 4:20 PM MST (2/8)
Length of Visible Light 11h 25m
Length of Day
10h 30m
Waning Crescent, 3% of the Moon is Illuminated
Feb 8
Waning Crescent
Feb 10
New
Feb 17
First Quarter
Feb 25
Full
Mar 4
Last Quarter

Hourly Weather History & Observations

Time (MST) Temp. Windchill Dew Point Humidity Pressure Visibility Wind Dir Wind Speed Gust Speed Precip Events Conditions
12:53 AM 32.0 °F 21.6 °F 21.9 °F 66% 30.01 in 10.0 mi ESE 15.0 mph - N/A   Clear
1:53 AM 32.0 °F 23.0 °F 21.0 °F 64% 29.99 in 10.0 mi East 11.5 mph - N/A   Mostly Cloudy
2:53 AM 32.0 °F 22.5 °F 21.0 °F 64% 29.96 in 10.0 mi ESE 12.7 mph - N/A   Overcast
3:53 AM 30.9 °F 21.2 °F 21.9 °F 69% 29.94 in 10.0 mi East 12.7 mph - N/A   Overcast
4:53 AM 33.8 °F 23.2 °F 19.4 °F 56% 29.93 in 10.0 mi ESE 17.3 mph - N/A   Mostly Cloudy
5:53 AM 30.0 °F 20.0 °F 21.9 °F 72% 29.91 in 10.0 mi ESE 12.7 mph - N/A   Scattered Clouds
6:53 AM 34.0 °F 23.8 °F 18.0 °F 52% 29.88 in 10.0 mi ESE 16.1 mph - N/A   Scattered Clouds
7:53 AM 30.9 °F 20.7 °F 19.9 °F 64% 29.89 in 10.0 mi ESE 13.8 mph - N/A   Scattered Clouds
8:53 AM 35.1 °F 25.5 °F 19.9 °F 54% 29.86 in 10.0 mi East 15.0 mph - N/A   Scattered Clouds
9:53 AM 39.9 °F 32.1 °F 19.9 °F 45% 29.81 in 10.0 mi ESE 13.8 mph - N/A   Scattered Clouds
10:53 AM 45.0 °F 39.3 °F 21.9 °F 40% 29.78 in 10.0 mi ESE 11.5 mph - N/A   Mostly Cloudy
11:53 AM 50.0 °F - 19.9 °F 31% 29.72 in 10.0 mi SSE 16.1 mph - N/A   Mostly Cloudy
12:53 PM 52.0 °F - 23.0 °F 32% 29.66 in 10.0 mi SSW 20.7 mph 26.5 mph N/A   Overcast
1:53 PM 54.0 °F - 21.9 °F 29% 29.62 in 10.0 mi SSW 24.2 mph 29.9 mph N/A   Scattered Clouds
2:53 PM 52.0 °F - 24.1 °F 34% 29.63 in 10.0 mi SSW 17.3 mph 54.1 mph N/A   Mostly Cloudy
3:35 PM 50.0 °F - 26.6 °F 40% 29.65 in 10.0 mi SSE 12.7 mph 19.6 mph N/A   Scattered Clouds
3:53 PM 50.0 °F - 28.0 °F 43% 29.60 in 10.0 mi SSE 9.2 mph - N/A   Partly Cloudy
4:53 PM 48.2 °F - 26.6 °F 43% 29.62 in 10.0 mi SSE 15.0 mph 24.2 mph N/A   Mostly Cloudy
5:53 PM 43.0 °F 37.7 °F 30.9 °F 62% 29.60 in 10.0 mi WNW 9.2 mph - N/A   Overcast
6:53 PM 39.0 °F 35.7 °F 30.9 °F 73% 29.61 in 10.0 mi WNW 4.6 mph - N/A   Mostly Cloudy
7:53 PM 37.9 °F 30.0 °F 30.0 °F 73% 29.65 in 10.0 mi NW 12.7 mph - N/A   Mostly Cloudy
8:53 PM 36.0 °F 26.3 °F 30.9 °F 82% 29.67 in 10.0 mi NNW 16.1 mph - N/A   Overcast
9:53 PM 36.0 °F 26.7 °F 30.9 °F 82% 29.67 in 10.0 mi North 15.0 mph - N/A   Mostly Cloudy
10:53 PM 35.1 °F 25.2 °F 32.0 °F 89% 29.69 in 10.0 mi NNW 16.1 mph - N/A   Overcast
11:53 PM 34.0 °F 25.0 °F 30.9 °F 89% 29.68 in 10.0 mi NNW 12.7 mph 24.2 mph N/A   Overcast